Retour au catalogue

PEARL-1A

ActifCommunicationsSSO
NORAD 68990·PAYLOAD·🇮🇹 Italy

Lancé May 3, 2026 depuis Vandenberg Space Force Base

Loading…

Prochains Passages (prochaines 24 heures)

TLE

FraisSource: Space-Track

Époque: Sep 13, 2026, 22:44 UTC

1 68990U 26100L   26256.94746411  .00001457  00000-0  15221-3 0  9999
2 68990  97.7182 152.4623 0004159 217.9761 142.1165 14.91178610 19922

Suivez PEARL-1A en temps réel avec AllMySat

Download on the App Store